Location: Aiyekoto
(8.4333°N, 4.3667°E)
Time: 23:42:58
(UTC+00:00)

Centaur D-1A AC-31 - Pass Details

Date: 10 October 2020
Orbit: 553 x 36388 km, 27.2° (Epoch: 24 October)

Event Time Altitude Azimuth Distance (km) Brightness Sun altitude
Rises 04:43:29 0° 200° (SSW) 4,877 5.5 -12.3°
Reaches altitude 10° 04:46:43 10° 183° (S) 4,875 5.6 -11.5°
Maximum altitude 12:34:28 58° 45° (NE) 29,921 10.1 67.7°
Drops below altitude 10° 14:50:22 10° 73° (ENE) 10,368 6.9 37.6°
Sets 14:55:31 0° 77° (ENE) 9,930 6.7 36.4°
